This demonstration page uses our WeatherBlox Daily Observations layout. Learn more.

39.01783, -85.05884

Hourly Observations for July 2, 2019

Temp ( °F °C ) Dew Point ( °F °C ) Humidity (%) Winds ( mph kmh ) Pressure ( in mb ) Visibility ( mi km ) Precip ( " mm )
12:52 am 00:52 Mostly Clear 77 25 71 21.7 82 82 W 10 17 29.94 1014 10 16.09344 0 0
1:52 am 01:52 Mostly Clear 77 25 71 21.7 82 82 W 7 11 29.94 1014 10 16.09344 0 0
2:52 am 02:52 Partly Cloudy 75 23.9 71 21.7 88 88 Calm 29.94 1014 10 16.09344 0 0
3:52 am 03:52 Mostly Clear 75 23.9 71 21.7 88 88 WSW 3 6 29.94 1014 10 16.09344 0 0
4:52 am 04:52 Mostly Clear 75 23.9 70 21.1 84 84 W 5 7 29.91 1013 10 16.09344 0 0
5:52 am 05:52 Partly Cloudy 75 23.9 71 21.7 88 88 W 10 17 29.94 1014 10 16.09344 0 0
6:52 am 06:52 Partly Cloudy 74 23.3 71 21.7 91 91 SSW 3 6 29.94 1014 8 12.874752 0 0
7:52 am 07:52 Mostly Sunny 78 25.6 71 21.7 79 79 W 3 6 29.94 1014 10 16.09344 0 0
8:52 am 08:52 Partly Cloudy 80 26.7 71 21.7 74 74 W 8 13 29.97 1015 10 16.09344 0 0
9:52 am 09:52 Mostly Cloudy 83 28.3 72 22.2 70 70 W 9 15 29.97 1015 10 16.09344 0 0
10:52 am 10:52 Partly Cloudy 85 29.4 72 22.2 65 65 W 8 13 29.97 1015 10 16.09344 0 0
11:52 am 11:52 Partly Cloudy 86 30 71 21.7 61 61 WSW 8 13 29.97 1015 10 16.09344 0 0
1:52 pm 13:52 Mostly Cloudy 90 32.2 70 21.1 52 52 WNW 12 19 29.91 1013 10 16.09344 0 0
2:59 pm 14:59 Partly Cloudy with Nearby Thunderstorms 90 32.2 71 21.7 54 54 WSW 10 17 29.88 1012 10 16.09344 0 0
3:14 pm 15:14 Mostly Cloudy 91 32.8 71 21.7 52 52 WNW 7 11 29.91 1013 10 16.09344 0 0
3:33 pm 15:33 Mostly Cloudy with Thunderstorms 86 30 67 19.4 53 53 W 14 22 29.91 1013 10 16.09344 0 0
3:52 pm 15:52 Mostly Cloudy with Thunderstorms 81 27.2 68 20 65 65 SSE 13 20 29.88 1012 10 16.09344 0 0
4:26 pm 16:26 Mostly Cloudy with Nearby Thunderstorms 83 28.3 69 20.6 63 63 S 3 6 29.88 1012 10 16.09344 0 0
4:30 pm 16:30 Mostly Cloudy 84 28.9 70 21.1 63 63 Calm 29.88 1012 10 16.09344 0 0
4:52 pm 16:52 Mostly Cloudy 85 29.4 70 21.1 61 61 SW 3 6 29.88 1012 10 16.09344 0 0
5:52 pm 17:52 Mostly Cloudy 79 26.1 66 18.9 65 65 S 8 13 29.88 1012 10 16.09344 0 0
7:52 pm 19:52 Mostly Cloudy 82 27.8 67 19.4 60 60 SSE 9 15 29.85 1011 10 16.09344 0 0
8:52 pm 20:52 Mostly Cloudy 79 26.1 68 20 69 69 SW 7 11 29.88 1012 10 16.09344 0 0
9:52 pm 21:52 Mostly Cloudy 77 25 69 20.6 77 77 S 8 13 29.88 1012 10 16.09344 0 0
10:52 pm 22:52 Partly Cloudy 76 24.4 70 21.1 82 82 SSW 5 7 29.88 1012 10 16.09344 0 0
11:52 pm 23:52 Mostly Cloudy 77 25 70 21.1 79 79 SSW 10 17 29.91 1013 10 16.09344 0 0

Powered by AerisWeather